Weather History for Piney Island, NC

Change the Weather History Date:

Monday, March 18, 2013

  Actual Average (KMRH) Record (KMRH)
Temperature  
Mean Temperature 55 °F -  
Max Temperature 60 °F 62 °F 82 °F (1963)
Min Temperature 50 °F 41 °F 26 °F (1976)
Degree Days  
Heating Degree Days 10    
Growing Degree Days 5 (Base 50)    
Moisture  
Dew Point 51 °F    
Average Humidity 91    
Maximum Humidity 100    
Minimum Humidity 77    
Precipitation  
Precipitation 0.00 in - - ()
Sea Level Pressure  
Sea Level Pressure 30.03 in    
Wind  
Wind Speed 11 mph (NE)    
Max Wind Speed 22 mph    
Max Gust Speed 29 mph    
Visibility 7 miles    
Events Fog    
Averages and records for this station are not official NWS values.
T = Trace of Precipitation, MM = Missing Value Source: NWS Daily Summary

Daily Weather History Graph

Daily Weather History Graph

Search for Another Location

Airport:

Trip Planner

Search our weather history database for the weather conditions in past years. The results will help you decide how hot, cold, wet, or windy it might be!

Date:

Astronomy

Mar. 18, 2013 Rise Set
Actual Time 7:11 AM EDT 7:16 PM EDT
Civil Twilight 6:46 AM EDT 7:41 PM EDT
Nautical Twilight 6:17 AM EDT 8:10 PM EDT
Astronomical Twilight 5:47 AM EDT 8:40 PM EDT
Moon 11:22 AM EDT (3/18) 1:01 AM EDT (3/18)
Length of Visible Light 12h 54m
Length of Day
12h 04m
Waxing Crescent, 40% of the Moon is Illuminated
Mar 18
Waxing Crescent
Mar 19
First Quarter
Mar 27
Full
Apr 3
Last Quarter
Apr 10
New

Hourly Weather History & Observations

Time (EDT) Temp. Dew Point Humidity Pressure Visibility Wind Dir Wind Speed Gust Speed Precip Events Conditions
12:36 AM 50.0 °F 44.6 °F 82% 30.14 in 10.0 mi ENE 19.6 mph 28.8 mph N/A   Overcast
12:56 AM 50.0 °F 46.0 °F 86% 30.14 in 10.0 mi ENE 18.4 mph 26.5 mph N/A   Overcast
1:56 AM 50.0 °F 46.0 °F 86% 30.14 in 10.0 mi NE 16.1 mph 24.2 mph N/A   Overcast
2:41 AM 50.0 °F 46.4 °F 87% 30.13 in 10.0 mi NE 18.4 mph 24.2 mph N/A   Overcast
2:56 AM 50.0 °F 46.0 °F 86% 30.15 in 10.0 mi NE 11.5 mph 23.0 mph N/A   Overcast
3:56 AM 50.0 °F 46.0 °F 86% 30.12 in 10.0 mi NE 21.9 mph 28.8 mph N/A   Overcast
4:56 AM 50.0 °F 46.0 °F 86% 30.12 in 10.0 mi NNE 12.7 mph 20.7 mph N/A   Overcast
5:56 AM 50.0 °F 46.9 °F 89% 30.10 in 10.0 mi NE 15.0 mph 27.6 mph N/A   Overcast
6:56 AM 50.0 °F 46.9 °F 89% 30.13 in 10.0 mi NNE 11.5 mph 23.0 mph N/A   Overcast
7:56 AM 51.1 °F 46.9 °F 86% 30.15 in 10.0 mi North 12.7 mph - N/A   Overcast
8:56 AM 51.1 °F 46.9 °F 86% 30.14 in 9.0 mi North 12.7 mph 23.0 mph N/A   Overcast
9:56 AM 51.1 °F 48.0 °F 89% 30.14 in 10.0 mi North 15.0 mph 20.7 mph N/A   Overcast
10:56 AM 52.0 °F 48.9 °F 89% 30.15 in 9.0 mi North 11.5 mph - N/A   Overcast
11:56 AM 54.0 °F 48.9 °F 83% 30.11 in 10.0 mi NNE 12.7 mph - N/A   Overcast
12:56 PM 55.0 °F 50.0 °F 83% 30.09 in 9.0 mi North 9.2 mph - N/A   Overcast
1:56 PM 55.0 °F 51.1 °F 86% 30.07 in 9.0 mi NNW 9.2 mph - N/A   Overcast
2:56 PM 57.0 °F 53.1 °F 87% 30.03 in 8.0 mi NNE 4.6 mph - N/A   Overcast
3:56 PM 57.0 °F 54.0 °F 89% 30.00 in 8.0 mi North 6.9 mph - N/A   Overcast
4:56 PM 57.0 °F 54.0 °F 89% 30.00 in 6.0 mi ENE 3.5 mph - N/A   Overcast
6:09 PM 60.8 °F 53.6 °F 77% 29.97 in 5.0 mi Calm Calm - N/A   Haze
6:25 PM 57.2 °F 53.6 °F 88% 29.97 in 6.0 mi ENE 4.6 mph - N/A   Mostly Cloudy
6:54 PM 55.4 °F 53.6 °F 94% 29.97 in 3.0 mi ENE 3.5 mph - N/A   Mostly Cloudy
6:56 PM 55.9 °F 54.0 °F 93% 29.98 in 2.0 mi NE 3.5 mph - N/A   Mostly Cloudy
7:00 PM 55.4 °F 53.6 °F 94% 29.96 in 1.0 mi NE 3.5 mph - N/A   Mist
7:02 PM 55.4 °F 53.6 °F 94% 29.96 in 0.8 mi NE 3.5 mph - N/A   Mist
7:17 PM 55.4 °F 53.6 °F 94% 29.96 in 0.5 mi Calm Calm - N/A Fog Fog
7:54 PM 53.6 °F 53.6 °F 100% 29.95 in 0.8 mi Calm Calm - N/A   Mist
7:56 PM 54.0 °F 53.1 °F 97% 29.97 in 0.8 mi East 3.5 mph - N/A   Mist
8:09 PM 53.6 °F 53.6 °F 100% 29.95 in 0.5 mi East 3.5 mph - N/A Fog Fog
8:28 PM 53.6 °F 51.8 °F 94% 29.94 in 2.0 mi East 4.6 mph - N/A   Scattered Clouds
8:36 PM 53.6 °F 51.8 °F 94% 29.93 in 7.0 mi East 5.8 mph - N/A   Partly Cloudy
8:56 PM 53.1 °F 53.1 °F 100% 29.95 in 10.0 mi East 3.5 mph - N/A   Partly Cloudy
9:56 PM 53.1 °F 53.1 °F 100% 29.95 in 9.0 mi East 4.6 mph - N/A   Clear
10:32 PM 53.6 °F 53.6 °F 100% 29.92 in 4.0 mi ENE 5.8 mph - N/A   Scattered Clouds
10:35 PM 53.6 °F 53.6 °F 100% 29.92 in 1.8 mi NE 5.8 mph - N/A   Mostly Cloudy
10:56 PM 53.1 °F 53.1 °F 100% 29.93 in 7.0 mi East 3.5 mph - N/A   Overcast
11:16 PM 53.6 °F 51.8 °F 94% 29.91 in 10.0 mi Calm Calm - N/A   Scattered Clouds
11:56 PM 53.1 °F 53.1 °F 100% 29.93 in 10.0 mi Calm Calm - N/A   Overcast